Location: Lalanga
(4.5882°N, 32.9072°E)
Time: 15:22:14
(UTC+00:00)

Cosmos 1624 Rocket - Pass Details

Date: 24 January 2020
Orbit: 758 x 783 km, 74.0° (Epoch: 24 February)

Event Time Altitude Azimuth Distance (km) Brightness Sun altitude
Rises 16:55:45 0° 196° (SSW) 3,264 7.8 -14.6°
Reaches altitude 10° 16:58:08 10° 198° (SSW) 2,335 7.0 -15.1°
Maximum altitude 17:03:26 72° 282° (WNW) 821 4.3 -16.4°
Drops below altitude 10° 17:08:41 10° 6° (N) 2,320 6.2 -17.6°
Enters shadow 17:10:07 - 8° (N) 2,871 6.7 -18.0°
